User: anonymous   Login
Location: Unspecified
(0.0000°N, 0.0000°E)
Time: 23:05:01
(UTC+00:00)
Language:

QAEM 100 R/B - Orbit

View from above orbital plane
View from above orbital plane
View from above satellite
View from above satellite

Ground track
Ground track

The orbit is defined by the following mean orbital elements,

1 61072U          26145.63722889 +.00000000 +00000-0 +26870-3 0 00008
2 61072  64.0746 116.3118 0052002 308.0587  51.5841 15.10878553    03
Epoch (UTC): 25 May 2026 15:17:36
Eccentricity: 0.0052002
inclination: 64.0746°
perigee height: 498 km
apogee height: 569 km
right ascension of ascending node: 116.3118°
argument of perigee: 308.0587°
revolutions per day: 15.10878553
mean anomaly at epoch: 51.5841°

The dashed part of the orbit path shows where the satellite is in the earth's shadow,  

DLR